Creede, CO

2:16 AM MST on December 06, 2016 (GMT -0700)
Wolf Creek Pass

Weather History for KCPW - April, 2014

Change the Weather History Date:

Tuesday, April 29, 2014

  Actual Average (KALS) Record (KALS)
Temperature  
Mean Temperature 14 °F 46 °F  
Max Temperature 23 °F 64 °F 78 °F (1981)
Min Temperature 6 °F 29 °F 7 °F (1996)
Degree Days  
Heating Degree Days 50 19  
Month to date heating degree days 676  
Since 1 July heating degree days 7982  
Cooling Degree Days 0 0  
Month to date cooling degree days 0  
Year to date cooling degree days 0  
Moisture  
Dew Point 5 °F    
Average Humidity 65    
Maximum Humidity 85    
Minimum Humidity 46    
Precipitation  
Precipitation 0.00 in 0.02 in 0.36 in (2016)
Month to date precipitation 0.57  
Year to date precipitation 1.62  
Snow  
Snow 0.00 in 0.10 in 1.60 in (1958)
Month to date snowfall 3.5  
Since 1 July snowfall 26.6  
Snow Depth -    
Sea Level Pressure  
Sea Level Pressure 30.16 in    
Wind  
Wind Speed 20 mph (NNE)    
Max Wind Speed 34 mph    
Max Gust Speed 43 mph    
Visibility 9 miles    
Events      
T = Trace of Precipitation, MM = Missing Value Source: NWS Daily Summary

Daily Weather History Graph

Daily Weather History Graph

Search for Another Location

Airport or City:

Trip Planner

Search our weather history database for the weather conditions in past years. The results will help you decide how hot, cold, wet, or windy it might be!

Date:

Astronomy

Apr. 29, 2014 Rise Set
Actual Time 6:14 AM MDT 7:55 PM MDT
Civil Twilight 5:46 AM MDT 8:23 PM MDT
Nautical Twilight 5:12 AM MDT 8:57 PM MDT
Astronomical Twilight 4:37 AM MDT 9:33 PM MDT
Moon 6:34 AM MDT (4/29) 8:37 PM MDT (4/29)
Length of Visible Light 14h 36m
Length of Day
13h 40m
New Moon, 0% of the Moon is Illuminated
Apr 29
New Moon
May 6
First Quarter
May 14
Full
May 21
Last Quarter
May 28
New

Hourly Weather History & Observations

Time (MDT) Temp. Windchill Dew Point Humidity Pressure Visibility Wind Dir Wind Speed Gust Speed Precip Events Conditions
12:20 AM 8.6 °F -10.0 °F 3.2 °F 79% 30.07 in 7.0 mi North 18.4 mph 26.5 mph N/A   Scattered Clouds
12:38 AM 8.6 °F -10.0 °F 3.2 °F 79% 30.07 in 7.0 mi NNE 18.4 mph 25.3 mph N/A   Scattered Clouds
12:59 AM 8.6 °F -10.0 °F 3.2 °F 79% 30.07 in 10.0 mi NNE 18.4 mph 25.3 mph N/A   Scattered Clouds
1:17 AM 8.6 °F -10.0 °F 1.4 °F 73% 30.07 in 7.0 mi NNE 18.4 mph 27.6 mph N/A   Clear
1:38 AM 8.6 °F -12.7 °F 1.4 °F 73% 30.06 in 5.0 mi NNE 25.3 mph 36.8 mph N/A   Haze
1:45 AM 8.6 °F -14.5 °F 1.4 °F 73% 30.06 in 4.0 mi North 31.1 mph 38.0 mph N/A   Haze
2:15 AM 8.6 °F -11.9 °F 1.4 °F 73% 30.06 in 7.0 mi NNE 23.0 mph 31.1 mph N/A   Clear
2:38 AM 8.6 °F -10.5 °F 1.4 °F 73% 30.07 in 5.0 mi NE 19.6 mph 31.1 mph N/A   Haze
3:00 AM 8.6 °F -8.3 °F 1.4 °F 73% 30.07 in 10.0 mi NNE 15.0 mph 24.2 mph N/A   Scattered Clouds
3:18 AM 8.6 °F -10.0 °F 1.4 °F 73% 30.07 in 10.0 mi NNE 18.4 mph 27.6 mph N/A   Scattered Clouds
3:39 AM 6.8 °F -13.4 °F 1.4 °F 79% 30.07 in 10.0 mi NNE 20.7 mph 24.2 mph N/A   Clear
3:58 AM 6.8 °F -13.4 °F 3.2 °F 85% 30.07 in 10.0 mi NNE 20.7 mph - N/A   Clear
4:20 AM 6.8 °F -12.9 °F 3.2 °F 85% 30.08 in 10.0 mi NNE 19.6 mph 25.3 mph N/A   Scattered Clouds
4:40 AM 8.6 °F -12.3 °F 3.2 °F 79% 30.07 in 10.0 mi NNE 24.2 mph 27.6 mph N/A   Scattered Clouds
4:58 AM 8.6 °F -11.9 °F 3.2 °F 79% 30.07 in 10.0 mi NNE 23.0 mph - N/A   Clear
5:20 AM 8.6 °F -11.0 °F 3.2 °F 79% 30.07 in 10.0 mi NNE 20.7 mph - N/A   Clear
5:37 AM 8.6 °F -9.5 °F 1.4 °F 73% 30.08 in 10.0 mi NE 17.3 mph 27.6 mph N/A   Clear
5:57 AM 6.8 °F -11.3 °F 1.4 °F 79% 30.08 in 10.0 mi NE 16.1 mph 23.0 mph N/A   Clear
6:17 AM 8.6 °F -8.9 °F 1.4 °F 73% 30.09 in 10.0 mi NNE 16.1 mph 21.9 mph N/A   Clear
6:40 AM 8.6 °F -11.9 °F 3.2 °F 79% 30.09 in 10.0 mi NNE 23.0 mph 31.1 mph N/A   Clear
7:00 AM 10.4 °F -10.3 °F 3.2 °F 73% 30.09 in 7.0 mi NNE 25.3 mph 32.2 mph N/A   Clear
7:18 AM 10.4 °F -9.9 °F 3.2 °F 73% 30.10 in 5.0 mi NNE 24.2 mph 33.4 mph N/A   Haze
7:38 AM 12.2 °F -7.5 °F 3.2 °F 67% 30.10 in 4.0 mi NE 24.2 mph 29.9 mph N/A   Haze
7:59 AM 12.2 °F -7.1 °F 3.2 °F 67% 30.11 in 5.0 mi NNE 23.0 mph 32.2 mph N/A   Haze
8:15 AM 12.2 °F -7.1 °F 3.2 °F 67% 30.12 in 7.0 mi NNE 23.0 mph 29.9 mph N/A   Clear
8:40 AM 14.0 °F -5.5 °F 5.0 °F 67% 30.13 in 7.0 mi NNE 25.3 mph 31.1 mph N/A   Clear
8:57 AM 14.0 °F -3.4 °F 5.0 °F 67% 30.14 in 5.0 mi NNE 19.6 mph 29.9 mph N/A   Haze
9:15 AM 14.0 °F -8.0 °F 5.0 °F 67% 30.14 in 2.5 mi NE 34.5 mph 42.6 mph N/A   Haze
9:38 AM 15.8 °F -2.7 °F 5.0 °F 62% 30.15 in 2.5 mi NE 24.2 mph 35.7 mph N/A   Haze
10:00 AM 17.6 °F -0.6 °F 5.0 °F 58% 30.16 in 3.0 mi NE 25.3 mph 34.5 mph N/A   Haze
10:20 AM 17.6 °F -1.0 °F 5.0 °F 58% 30.17 in 4.0 mi NE 26.5 mph 34.5 mph N/A   Haze
10:39 AM 17.6 °F 0.5 °F 5.0 °F 58% 30.17 in 7.0 mi NE 21.9 mph 26.5 mph N/A   Scattered Clouds
10:58 AM 19.4 °F 4.5 °F 5.0 °F 54% 30.18 in 10.0 mi NE 17.3 mph 26.5 mph N/A   Mostly Cloudy
11:19 AM 19.4 °F 6.0 °F 5.0 °F 54% 30.19 in 10.0 mi NNE 13.8 mph 21.9 mph N/A   Mostly Cloudy
11:39 AM 19.4 °F 6.0 °F 5.0 °F 54% 30.19 in 10.0 mi NNE 13.8 mph 19.6 mph N/A   Mostly Cloudy
11:59 AM 19.4 °F 4.5 °F 5.0 °F 54% 30.19 in 10.0 mi North 17.3 mph 21.9 mph N/A   Mostly Cloudy
12:17 PM 21.2 °F 8.3 °F 6.8 °F 54% 30.19 in 10.0 mi NNE 13.8 mph 21.9 mph N/A   Mostly Cloudy
12:40 PM 19.4 °F 7.2 °F 5.0 °F 54% 30.19 in 10.0 mi North 11.5 mph 24.2 mph N/A   Mostly Cloudy
12:57 PM 19.4 °F 9.5 °F 5.0 °F 54% 30.19 in 10.0 mi NNE 8.1 mph 18.4 mph N/A   Mostly Cloudy
1:20 PM 21.2 °F 9.5 °F 6.8 °F 54% 30.19 in 10.0 mi NNE 11.5 mph 23.0 mph N/A   Overcast
1:38 PM 21.2 °F 10.1 °F 5.0 °F 50% 30.19 in 10.0 mi North 10.4 mph 20.7 mph N/A   Mostly Cloudy
1:59 PM 21.2 °F 6.0 °F 5.0 °F 50% 30.19 in 10.0 mi NNE 19.6 mph 26.5 mph N/A   Overcast
2:18 PM 23.0 °F 10.6 °F 5.0 °F 46% 30.19 in 10.0 mi NE 13.8 mph 18.4 mph N/A   Overcast
2:39 PM 21.2 °F 6.4 °F 8.6 °F 58% 30.19 in 7.0 mi NNE 18.4 mph 25.3 mph N/A   Overcast
3:19 PM 23.0 °F 11.7 °F 5.0 °F 46% 30.19 in 10.0 mi NNE 11.5 mph 24.2 mph N/A   Scattered Clouds
3:40 PM 23.0 °F 9.2 °F 8.6 °F 54% 30.19 in 10.0 mi NNE 17.3 mph 25.3 mph N/A   Scattered Clouds
3:57 PM 21.2 °F 6.4 °F 5.0 °F 50% 30.19 in 10.0 mi NNE 18.4 mph 24.2 mph N/A   Mostly Cloudy
4:20 PM 23.0 °F 9.6 °F 6.8 °F 50% 30.19 in 10.0 mi NNE 16.1 mph 31.1 mph N/A   Scattered Clouds
4:38 PM 23.0 °F 8.7 °F 6.8 °F 50% 30.20 in 10.0 mi NNE 18.4 mph 21.9 mph N/A   Scattered Clouds
4:53 PM 21.2 °F 6.4 °F 8.6 °F 58% 30.20 in 10.0 mi NE 18.4 mph 23.0 mph N/A   Scattered Clouds
5:11 PM 21.2 °F 6.0 °F 6.8 °F 54% 30.20 in 10.0 mi NNE 19.6 mph 26.5 mph N/A   Scattered Clouds
5:38 PM 19.4 °F 3.6 °F 6.8 °F 58% 30.21 in 10.0 mi NNE 19.6 mph 27.6 mph N/A   Clear
5:51 PM 19.4 °F 2.8 °F 5.0 °F 54% 30.21 in 10.0 mi NNE 21.9 mph - N/A   Clear
6:20 PM 19.4 °F 3.2 °F 8.6 °F 63% 30.21 in 10.0 mi NNE 20.7 mph 27.6 mph N/A   Clear
6:39 PM 19.4 °F 3.6 °F 5.0 °F 54% 30.21 in 10.0 mi NNE 19.6 mph 31.1 mph N/A   Clear
7:00 PM 19.4 °F 3.2 °F 5.0 °F 54% 30.21 in 10.0 mi NNE 20.7 mph 28.8 mph N/A   Clear
7:18 PM 17.6 °F 0.1 °F 5.0 °F 58% 30.21 in 10.0 mi NNE 23.0 mph 29.9 mph N/A   Clear
7:39 PM 17.6 °F 1.7 °F 5.0 °F 58% 30.22 in 10.0 mi NNE 18.4 mph 26.5 mph N/A   Clear
7:59 PM 15.8 °F -0.6 °F 6.8 °F 68% 30.22 in 10.0 mi NE 18.4 mph 24.2 mph N/A   Clear
8:20 PM 15.8 °F -0.6 °F 6.8 °F 68% 30.24 in 10.0 mi NNE 18.4 mph 23.0 mph N/A   Clear
8:30 PM 15.8 °F -1.1 °F 5.0 °F 62% 30.24 in 10.0 mi NNE 19.6 mph 24.2 mph N/A   Clear
9:00 PM 15.8 °F -1.5 °F 5.0 °F 62% 30.24 in 10.0 mi NE 20.7 mph 28.8 mph N/A   Clear
9:20 PM 14.0 °F -4.3 °F 5.0 °F 67% 30.24 in 10.0 mi NE 21.9 mph 27.6 mph N/A   Clear
9:31 PM 14.0 °F -3.0 °F 6.8 °F 73% 30.24 in 10.0 mi NE 18.4 mph 28.8 mph N/A   Clear
9:56 PM 14.0 °F -3.4 °F 6.8 °F 73% 30.25 in 10.0 mi NE 19.6 mph 25.3 mph N/A   Clear
10:19 PM 14.0 °F -2.5 °F 6.8 °F 73% 30.26 in 10.0 mi NE 17.3 mph - N/A   Clear
10:40 PM 14.0 °F -4.3 °F 6.8 °F 73% 30.26 in 10.0 mi NNE 21.9 mph 25.3 mph N/A   Clear
10:53 PM 14.0 °F -3.4 °F 6.8 °F 73% 30.26 in 10.0 mi NNE 19.6 mph - N/A   Clear
11:20 PM 14.0 °F -1.4 °F 5.0 °F 67% 30.27 in 10.0 mi NNE 15.0 mph - N/A   Clear
11:39 PM 12.2 °F -3.7 °F 5.0 °F 73% 30.26 in 10.0 mi NNE 15.0 mph - N/A   Clear
11:58 PM 12.2 °F -5.3 °F 6.8 °F 79% 30.27 in 10.0 mi NNE 18.4 mph - N/A   Clear